Location: Unspecified
(37.6100°N, 2.7800°W)
Time: 19:45:41
(UTC+00:00)

Hubble Space Telescope - Visible Passes

Search period start: 18 November 2017 00:00
Search period end: 28 November 2017 00:00
Orbit: 537 x 541 km, 28.5° (Epoch: 17 November)

Date Brightness Start Highest point End Pass type
(mag) Time Alt. Az. Time Alt. Az. Time Alt. Az.
18 Nov 3.3 04:42:42 13° S 04:43:21 13° SSE 04:45:23 10° SE visible
18 Nov 2.8 06:20:44 10° SW 06:23:56 22° S 06:27:10 10° SE visible
19 Nov 3.2 04:33:20 15° SSE 04:33:20 15° SSE 04:35:29 10° SE visible
19 Nov 2.7 06:10:23 10° SW 06:13:39 23° S 06:16:54 10° SE visible
20 Nov 3.3 04:23:54 16° SSE 04:23:54 16° SSE 04:25:28 10° SE visible
20 Nov 2.7 06:00:05 10° SW 06:03:20 23° S 06:06:37 10° SE visible
21 Nov 3.5 04:14:24 14° SE 04:14:24 14° SE 04:15:21 10° SE visible
21 Nov 2.6 05:49:48 10° SW 05:53:03 22° S 05:56:17 10° SE visible
22 Nov 3.8 04:04:52 11° SE 04:04:52 11° SE 04:05:12 10° ESE visible
22 Nov 2.6 05:40:14 13° SW 05:42:45 21° S 05:45:55 10° SE visible
23 Nov 2.7 05:30:40 16° SW 05:32:26 20° S 05:35:30 10° SE visible
24 Nov 2.7 05:21:05 17° SSW 05:22:08 19° S 05:25:02 10° SE visible
25 Nov 2.8 05:11:30 17° SSW 05:11:48 17° SSW 05:14:28 10° SSE visible
26 Nov 3.0 05:01:56 14° S 05:01:56 14° S 05:03:48 10° SSE visible
27 Nov 3.4 04:52:23 11° S 04:52:23 11° S 04:52:57 10° S visible
